This is the latest recevied weather packets stored in our database for station/object W5ZYX. If no packets are shown the sender has not sent any weather packets the latest 10 day(s).
| Time | Temp. | Humidity | Pressure | Rain* | Wind** | Luminosity | Snow |
|---|---|---|---|---|---|---|---|
| 1777642839 | 13.89° C | 95% | 1014.6 hPa | 3.05 mm | - | - | - |
| 1777642540 | 13.89° C | 95% | 1014.2 hPa | 2.54 mm | - | - | - |
| 1777642267 | 13.89° C | 95% | 1014 hPa | 2.54 mm | - | - | - |
| 1777641941 | 13.89° C | 95% | 1013.9 hPa | 2.54 mm | - | - | - |
| 1777641640 | 13.89° C | 95% | 1014 hPa | 2.54 mm | - | - | - |
| 1777641349 | 13.89° C | 95% | 1014 hPa | 2.79 mm | - | - | - |
| 1777641040 | 13.89° C | 95% | 1014.1 hPa | 2.79 mm | - | - | - |
| 1777640738 | 13.89° C | 95% | 1014.6 hPa | 2.79 mm | - | - | - |
| 1777640451 | 13.89° C | 95% | 1014.9 hPa | 2.54 mm | - | - | - |
| 1777640141 | 13.89° C | 95% | 1015.2 hPa | 2.79 mm | - | - | - |
| 1777639839 | 14.44° C | 95% | 1015.2 hPa | 2.54 mm | - | - | - |
| 1777639568 | 14.44° C | 95% | 1015 hPa | 2.29 mm | - | - | - |
| 1777639237 | 14.44° C | 95% | 1015.2 hPa | 2.29 mm | - | - | - |
| 1777638942 | 14.44° C | 95% | 1015.1 hPa | 2.54 mm | - | - | - |
| 1777638660 | 14.44° C | 95% | 1015 hPa | 2.29 mm | - | - | - |
| 1777638341 | 14.44° C | 95% | 1015.1 hPa | 2.29 mm | - | - | - |
| 1777638042 | 14.44° C | 95% | 1014.8 hPa | 2.03 mm | - | - | - |
| 1777637749 | 14.44° C | 95% | 1015.1 hPa | 2.03 mm | - | - | - |
| 1777637442 | 14.44° C | 95% | 1015.2 hPa | 1.78 mm | - | - | - |
| 1777637140 | 14.44° C | 95% | 1015 hPa | 1.52 mm | - | - | - |
| 1777636852 | 14.44° C | 95% | 1014.9 hPa | 1.78 mm | - | - | - |
| 1777636537 | 14.44° C | 95% | 1014.5 hPa | 1.52 mm | - | - | - |
| 1777636238 | 14.44° C | 95% | 1014 hPa | 1.52 mm | - | - | - |
| 1777635967 | 14.44° C | 95% | 1014 hPa | 1.52 mm | - | - | - |
| 1777635636 | 14.44° C | 95% | 1014 hPa | 1.27 mm | - | - | - |
* Rain latest hour (hover to see other rain measurements)
** Current wind speed in m/s (hover to see current wind gust speed)